Location: Oshawa
(43.9000°N, 78.8670°W)
Time: 01:36:34
(UTC-04:00)

Cosmos 1408 Rocket - Visible Passes

Search period start: 23 July 2014 00:00
Search period end: 02 August 2014 00:00
Orbit: 604 x 632 km, 82.6° (Epoch: 22 July)

Date Brightness Start Highest point End Pass type
(mag) Time Alt. Az. Time Alt. Az. Time Alt. Az.
23 Jul 4.2 01:38:24 10° N 01:42:43 48° ENE 01:42:43 48° ENE visible
23 Jul 5.5 03:17:24 10° NW 03:19:50 16° W 03:19:50 16° W visible
24 Jul 3.7 01:55:19 10° N 01:59:27 75° N 01:59:27 75° N visible
25 Jul 5.7 00:35:48 10° NNE 00:38:39 16° ENE 00:39:05 16° ENE visible
25 Jul 4.2 02:12:28 10° NNW 02:16:12 46° WNW 02:16:12 46° WNW visible
26 Jul 5.1 00:52:04 10° NNE 00:55:50 28° ENE 00:55:50 28° ENE visible
26 Jul 5.0 02:29:54 10° NNW 02:32:57 26° WNW 02:32:57 26° WNW visible
27 Jul 4.3 01:08:44 10° N 01:12:36 47° NE 01:12:36 47° NE visible
27 Jul 5.7 02:47:48 10° NW 02:49:44 15° WNW 02:49:44 15° WNW visible
28 Jul 4.0 01:25:40 10° N 01:29:23 61° N 01:29:23 61° N visible
29 Jul 5.7 00:06:07 10° NNE 00:09:00 17° ENE 00:09:04 17° ENE visible
29 Jul 4.5 01:42:49 10° NNW 01:46:11 41° NW 01:46:11 41° NW visible
30 Jul 5.1 00:22:23 10° NNE 00:25:52 28° ENE 00:25:52 28° ENE visible
30 Jul 5.3 02:00:15 10° NNW 02:03:00 25° WNW 02:03:00 25° WNW visible
31 Jul 4.4 00:39:04 10° N 00:42:42 45° NE 00:42:42 45° NE visible
31 Jul 5.9 02:18:11 10° NW 02:19:49 15° WNW 02:19:49 15° WNW visible
01 Aug 4.2 00:56:01 10° N 00:59:31 55° N 00:59:31 55° N visible
01 Aug 5.6 23:36:25 10° NNE 23:39:14 17° ENE 23:39:14 17° ENE visible
